This demonstration page uses our WeatherBlox Daily Observations layout. Learn more.

Left ArrowRight Arrow

38.89511, -77.03637

Hourly Observations for May 19, 2022

Temp ( °F °C ) Dew Point ( °F °C ) Humidity (%) Winds ( mph kmh ) Pressure ( in mb ) Visibility ( mi km ) Precip ( " mm )
12:52 am 00:52 Cloudy with Light Rain 64 17.8 53 11.7 68 68 SSE 8 13 29.80 1009 10 16 0.00 0.00
1:52 am 01:52 Cloudy with Light Rain 63 17.2 54 12.2 73 73 Calm 29.79 1009 10 16 0.03 0.76
2:52 am 02:52 Cloudy with Light Rain 62 16.7 57 13.9 84 84 NE 10 17 29.74 1007 10 16 0.01 0.25
3:52 am 03:52 Cloudy with Light Rain 61 16.1 57 13.9 87 87 NE 7 11 29.72 1007 10 16 0.00 0.00
4:52 am 04:52 Cloudy 61 16.1 56 13.3 84 84 NNE 6 9 29.71 1006 10 16 0.00 0.00
5:52 am 05:52 Cloudy 61 16.1 57 13.9 87 87 NNW 10 17 29.73 1007 10 16 0.00 0.00
6:52 am 06:52 Mostly Cloudy 62 16.7 58 14.4 86 86 N 6 9 29.75 1008 10 16 0.00 0.00
7:52 am 07:52 Cloudy 64 17.8 57 13.9 78 78 WSW 3 6 29.77 1008 10 16 0.00 0.00
8:52 am 08:52 Partly Cloudy 67 19.4 58 14.4 73 73 Calm 29.77 1008 10 16 0.00 0.00
9:52 am 09:52 Partly Cloudy 70 21.1 61 16.1 73 73 Calm 29.77 1008 10 16 0.00 0.00
10:52 am 10:52 Partly Cloudy 74 23.3 61 16.1 64 64 NNE 7 11 29.78 1008 10 16 0.00 0.00
11:52 am 11:52 Partly Cloudy 76 24.4 59 15 56 56 WNW 12 19 29.78 1008 10 16 0.00 0.00
12:52 pm 12:52 Partly Cloudy 79 26.1 60 15.6 52 52 VRB 7 11 29.76 1008 10 16 0.00 0.00
1:52 pm 13:52 Mostly Cloudy 83 28.3 61 16.1 48 48 W 10 17 29.75 1007 10 16 0.00 0.00
2:52 pm 14:52 Mostly Cloudy 84 28.9 58 14.4 41 41 WNW 12 19 29.75 1007 10 16 0.00 0.00
3:52 pm 15:52 Mostly Cloudy 85 29.4 55 12.8 36 36 WNW 14 22 29.74 1007 10 16 0.00 0.00
4:52 pm 16:52 Mostly Cloudy 86 30 52 11.1 31 31 W 15 24 29.73 1007 10 16 0.00 0.00
5:52 pm 17:52 Mostly Cloudy 84 28.9 52 11.1 33 33 W 9 15 29.75 1007 10 16 0.00 0.00
6:52 pm 18:52 Partly Cloudy 84 28.9 50 10 31 31 WNW 9 15 29.74 1007 10 16 0.00 0.00
7:52 pm 19:52 Mostly Cloudy 81 27.2 51 10.6 35 35 W 6 9 29.77 1008 10 16 0.00 0.00
8:52 pm 20:52 Mostly Cloudy 81 27.2 52 11.1 37 37 Calm 29.79 1009 10 16 0.00 0.00
9:52 pm 21:52 Mostly Cloudy 74 23.3 56 13.3 54 54 Calm 29.81 1010 10 16 0.00 0.00
10:52 pm 22:52 Mostly Cloudy 72 22.2 58 14.4 61 61 SSW 6 9 29.83 1010 10 16 0.00 0.00
11:52 pm 23:52 Mostly Cloudy 70 21.1 59 15 68 68 SSW 5 7 29.82 1010 10 16 0.00 0.00

Powered by AerisWeather